SCP
0 0 0 0 0 0 0 0 0 0 0 0 0 0 0 0 0 0 0 0 0 0 0 0 0 0 0 0 0 0 0 0 0 0 0 0 0 0 0 0 0 0 0 0
0 0 0 0 0 0 0 0 0 0 0 0 0 0 0 0 0 0 0 0 0 0 0 0 0 0 0 0 0 0 0 0 0 0 0 0 0 0 0 0 0 0 0 0
0 0 0 0 0 0 0 0 0 0 0 0 0 0 0 0 0 0 0 0 0 0 0 0 0 0 0 0 0 0 0 0 0 0 0 0 0 0 0 0 0 0 0 0
0 0 0 0 0 0 0 0 0 0 0 0 0 0 0 0 0 0 0 0 0 0 0 0 0 0 0 0 0 0 0 0 0 0 0 0 0 0 0 0 0 0 0 0
0 0 0 0 0 0 0 0 0 0 0 0 0 0 0 0 0 0 0 0 0 0 0 0 0 0 0 0 0 0 0 0 0 0 0 0 0 0 0 0 0 0 0 0
0 0 0 0 0 0 0 0 0 0 0 0 0 0 0 0 0 0 0 0 0 0 0 0 0 0 0 0 0 0 0 0 0 0 0 0 0 0 0 0 0 0 0 0
0 0 0 0 0 0 0 0 0 0 0 0 0 0 0 0 0 0 0 0 0 0 0 0 0 0 0 0 0 0 0 0 0 0 0 0 0 0 0 0 0 0 0 0
0 0 0 0 0 0 0 0 0 0 0 0 0 0 0 0 0 0 0 0 0 0 0 0 0 0 0 0 0 0 0 0 0 0 0 0 0 0 0 0 0 0 0 0
0 0 0 0 0 0 0 0 0 0 0 0 0 0 0 0 0 0 0 0 0 0 0 0 0 0 0 0 0 0 0 0 0 0 0 0 0 0 0 0 0 0 0 0
0 0 0 0 0 0 0 0 0 0 0 0 0 0 0 0 0 0 0 0 0 0 0 0 0 0 0 0 0 0 0 0 0 0 0 0 0 0 0 0 0 0 0 0
0 0 0 0 0 0 0 0 0 0 0 0 0 0 0 0 0 0 0 0 0 0 0 0 0 0 0 0 0 0 0 0 0 0 0 0 0 0 0 0 0 0 0 0
0 0 0 0 0 0 0 0 0 0 0 0 0 0 0 0 0 0 0 0 0 0 0 0 0 0 0 0 0 0 0 0 0 0 0 0 0 0 0 0 0 0 0 0
0 0 0 0 0 0 0 0 0 0 0 0 0 0 0 0 0 0 0 0 0 0 0 0 0 0 0 0 0 0 0 0 0 0 0 0 0 0 0 0 0 0 0 0
0 0 0 0 0 0 0 0 0 0 0 0 0 0 0 0 0 0 0 0 0 0 0 0 0 0 0 0 0 0 0 0 0 0 0 0 0 0 0 0 0 0 0 0
0 0 0 0 0 0 0 0 0 0 0 0 0 0 0 0 0 0 0 0 0 0 0 0 0 0 0 0 0 0 0 0 0 0 0 0 0 0 0 0 0 0 0 0
0 0 0 0 0 0 0 0 0 0 0 0 0 0 0 0 0 0 0 0 0 0 0 0 0 0 0 0 0 0 0 0 0 0 0 0 0 0 0 0 0 0 0 0
0 0 0 0 0 0 0 0 0 0 0 0 0 0 0 0 0 0 0 0 0 0 0 0 0 0 0 0 0 0 0 0 0 0 0 0 0 0 0 0 0 0 0 0
0 0 0 0 0 0 0 0 0 0 0 0 0 0 0 0 0 0 0 0 0 0 0 0 0 0 0 0 0 0 0 0 0 0 0 0 0 0 0 0 0 0 0 0
0 0 0 0 0 0 0 0 0 0 0 0 0 0 0 0 0 0 0 0 0 0 0 0 0 0 0 0 0 0 0 0 0 0 0 0 0 0 0 0 0 0 0 0
0 0 0 0 0 0 0 0 0 0 0 0 0 0 0 0 0 0 0 0 0 0 0 0 0 0 0 0 0 0 0 0 0 0 0 0 0 0 0 0 0 0 0 0
0 0 0 0 0 0 0 0 0 0 0 0 0 0 0 0 0 0 0 0 0 0 0 0 0 0 0 0 0 0 0 0 0 0 0 0 0 0 0 0 0 0 0 0
0 0 0 0 0 0 0 0 0 0 0 0 0 0 0 0 0 0 0 0 0 0 0 0 0 0 0 0 0 0 0 0 0 0 0 0 0 0 0 0 0 0 0 0
0 0 0 0 0 0 0 0 0 0 0 0 0 0 0 0 0 0 0 0 0 0 0 0 0 0 0 0 0 0 0 0 0 0 0 0 0 0 0 0 0 0 0 0
0 0 0 0 0 0 0 0 0 0 0 0 0 0 0 0 0 0 0 0 0 0 0 0 0 0 0 0 0 0 0 0 0 0 0 0 0 0 0 0 0 0 0 0
0 0 0 0 0 0 0 0 0 0 0 0 0 0 0 0 0 0 0 0 0 0 0 0 0 0 0 0 0 0 0 0 0 0 0 0 0 0 0 0 0 0 0 0
0 0 0 0 0 0 0 0 0 0 0 0 0 0 0 0 0 0 0 0 0 0 0 0 0 0 0 0 0 0 0 0 0 0 0 0 0 0 0 0 0 0 0 0
Wind_Speed
3 4 7 12 13 7 4 5 5 7 5 3 6 8 11 10 4 3 7 8 9 8 6 8 9 10 12 15 17 17 18 16 12 7 5 5 5 5 6 6 7 5 4 3
3 7 12 6 4 4 4 5 7 8 5 3 5 8 8 5 4 5 9 8 7 6 7 9 11 12 14 15 15 16 16 16 14 9 4 3 3 4 5 7 9 10 8 6
11 8 5 6 6 6 7 7 6 7 5 4 4 7 5 3 7 11 9 8 7 7 7 8 11 12 13 16 15 13 15 16 15 13 8 6 6 6 8 9 9 10 10 9
7 6 3 5 6 7 6 7 6 4 1 4 2 5 6 2 4 6 6 6 6 6 6 8 10 12 13 11 10 12 14 15 15 13 12 13 10 8 7 6 7 10 12 11
7 4 6 7 7 8 7 2 3 2 2 2 3 5 8 1 4 4 4 5 5 5 6 7 8 9 9 9 10 10 12 15 14 14 14 12 11 7 6 7 11 11 10 12
4 2 4 6 1 4 4 5 6 5 4 4 6 7 8 3 4 7 6 5 5 5 5 6 6 7 8 8 9 10 12 13 12 13 13 12 12 11 11 11 10 8 7 8
3 3 2 2 4 2 4 5 3 3 1 8 2 4 8 4 1 10 12 8 5 5 4 4 5 6 7 8 8 8 10 11 10 11 11 11 10 10 11 9 8 8 7 6
5 6 5 4 6 7 5 8 8 7 6 5 4 7 4 4 4 9 9 8 6 5 5 5 5 5 5 6 7 7 8 8 8 9 8 8 8 6 6 7 6 7 6 6
8 6 0 2 2 8 6 5 5 6 2 3 7 4 1 2 5 6 7 7 7 7 6 5 5 4 4 5 5 5 6 6 7 6 6 7 7 7 6 6 6 5 5 6
9 5 3 1 2 2 3 7 5 5 5 6 6 6 6 9 9 8 8 8 8 7 7 6 5 5 4 4 3 3 4 4 3 4 4 3 4 4 4 4 6 6 6 7
6 7 3 1 7 8 4 4 5 5 5 7 6 9 5 12 13 14 13 10 10 10 8 7 6 5 5 4 3 2 2 1 1 1 1 2 2 3 4 4 5 5 6 6
5 6 4 6 4 3 6 8 9 7 7 6 5 9 1 6 9 11 11 10 9 9 8 7 6 5 5 4 4 4 4 3 3 2 1 1 2 3 3 4 5 5 6 6
7 7 2 4 1 1 3 2 4 4 4 5 7 8 0 2 4 6 8 8 8 7 7 6 6 6 6 6 5 5 5 5 5 4 3 3 3 4 4 5 5 5 6 7
7 7 9 12 7 6 5 5 4 5 5 5 9 9 6 5 6 6 7 8 8 8 8 7 6 6 6 6 6 6 6 6 5 4 4 4 5 5 5 5 6 6 6 7
6 6 5 3 3 3 5 7 7 8 8 10 9 11 13 7 7 7 7 7 7 7 7 8 8 7 6 6 6 6 6 5 4 4 4 5 5 4 5 6 6 7 7 8
4 5 3 2 1 2 7 10 8 11 10 10 12 17 11 5 3 4 5 6 7 6 7 7 7 7 7 7 7 6 5 4 3 3 4 4 5 5 6 6 7 8 9 9
6 8 6 4 2 4 11 12 12 9 9 10 14 13 4 4 6 7 6 6 6 6 6 7 7 7 7 7 6 5 4 1 0 1 3 4 5 5 7 8 9 10 11 12
9 8 5 4 4 9 11 2 5 7 10 10 9 7 6 7 6 5 5 6 6 6 6 6 6 7 6 5 4 3 3 2 1 2 3 4 5 6 7 9 11 12 13 13
5 9 6 5 6 10 12 7 7 8 9 7 9 7 4 3 3 3 5 6 7 7 7 8 8 7 5 5 4 4 3 2 1 2 3 4 5 6 8 10 11 12 12 13
3 5 7 7 7 12 11 3 2 4 7 6 7 7 6 7 4 7 7 7 8 8 7 7 6 5 5 5 4 4 3 1 1 2 3 4 4 5 8 10 11 10 11 13
6 5 7 8 8 12 10 4 4 5 11 5 7 9 10 11 11 7 7 8 9 8 8 7 6 6 6 5 4 4 2 2 2 2 3 4 5 6 8 9 9 10 12 13
12 10 9 7 8 14 7 9 10 11 5 6 8 10 11 11 10 9 9 9 9 8 7 7 7 6 6 5 4 3 2 2 2 1 3 5 6 7 7 8 9 9 10 12
10 12 10 13 12 6 9 11 11 7 7 8 9 10 12 12 12 11 11 11 10 10 9 7 7 7 5 4 4 3 2 1 1 2 5 6 7 7 7 8 9 9 8 9
6 5 6 6 8 7 8 9 8 7 10 11 11 12 12 13 13 12 11 10 10 9 8 7 7 7 6 5 4 3 1 0 1 4 6 6 6 6 6 6 7 7 8 9
10 7 7 8 8 6 8 12 14 12 10 10 10 11 13 14 14 14 11 10 9 7 6 7 7 7 6 5 4 2 2 2 3 5 6 6 6 6 6 7 7 10 10 12
9 10 9 11 11 9 9 11 13 13 14 14 14 14 14 14 15 14 12 9 7 7 6 6 6 6 5 4 3 3 3 3 4 4 5 4 5 5 6 7 10 16 18 24
Wind_Direction
122 111 196 207 202 200 185 204 247 260 265 255 252 262 271 281 303 113 114 97 82 67 46 31 24 23 31 31 31 28 28 21 20 16 17 27 33 25 29 27 26 28 38 61
101 232 226 208 190 210 228 248 262 277 280 248 263 271 273 325 14 84 110 96 83 68 42 35 32 33 35 36 32 33 31 27 26 20 12 24 32 33 29 28 27 23 26 35
183 220 202 180 197 202 222 219 230 248 312 328 316 300 288 66 65 68 74 79 75 70 53 38 37 36 37 36 31 34 34 33 29 26 27 26 28 25 22 19 18 17 21 25
226 246 199 194 213 188 238 225 208 226 250 287 347 286 277 189 93 80 76 71 68 59 51 47 44 42 39 33 32 38 40 40 35 35 40 46 44 35 16 9 16 17 21 22
230 216 191 209 222 184 215 194 172 196 202 279 285 249 275 199 156 141 121 104 88 71 61 55 49 49 43 35 36 37 43 43 39 42 43 47 45 34 19 21 24 21 18 20
240 236 196 202 169 164 141 70 42 51 80 264 224 199 270 240 196 156 150 133 114 94 75 64 54 52 47 39 39 39 46 43 38 43 44 47 44 36 32 26 22 17 13 14
256 251 243 151 124 76 109 100 12 327 315 245 257 215 248 327 225 156 154 148 137 122 106 87 68 57 51 45 41 40 46 43 35 41 42 41 41 40 37 26 20 17 12 8
199 247 219 187 176 172 174 155 174 210 229 273 299 241 281 4 68 114 132 144 147 145 138 124 108 91 74 62 51 47 48 44 35 38 37 35 36 37 33 26 22 17 7 356
188 231 80 171 175 147 155 188 169 141 133 269 265 270 56 91 101 128 149 161 170 170 163 150 136 120 106 88 72 64 58 50 40 37 37 36 33 33 25 17 17 11 0 353
168 196 205 189 89 16 161 148 118 145 188 241 266 249 216 181 189 186 189 190 189 184 176 166 155 144 136 128 115 94 81 68 49 40 36 36 28 25 17 12 8 359 351 349
155 171 178 157 195 190 151 164 164 166 174 181 243 259 216 183 187 191 199 198 192 190 184 173 164 158 154 153 156 156 151 132 93 43 26 12 358 356 357 353 345 340 337 339
146 143 193 229 247 223 192 189 168 180 220 202 213 261 241 182 184 187 197 200 197 189 178 168 165 165 169 179 190 197 200 203 212 213 231 277 296 311 318 315 314 318 319 320
145 135 139 325 283 229 209 191 174 148 159 201 216 256 218 145 178 195 199 201 193 180 170 168 171 179 188 197 202 208 211 215 219 218 231 256 272 282 288 292 296 299 298 299
128 150 179 200 202 182 192 187 156 142 183 222 228 247 245 220 224 228 222 207 192 181 176 177 186 197 203 208 211 215 223 221 220 221 232 253 265 270 276 284 289 289 287 286
128 181 203 210 152 171 215 218 185 195 203 216 237 243 254 244 235 233 218 196 182 182 184 190 197 205 211 218 225 225 229 228 222 228 246 262 276 283 289 294 294 293 289 287
117 152 144 257 18 218 263 252 221 228 228 232 249 261 266 261 206 196 184 173 180 189 195 200 202 205 213 220 226 228 232 232 220 242 272 301 316 319 320 320 319 316 311 306
142 135 148 226 28 30 265 239 224 219 208 203 232 247 244 222 204 193 184 181 189 197 199 201 204 211 220 225 223 220 222 204 169 300 319 334 341 343 344 339 332 324 318 312
143 135 136 134 95 235 243 181 215 230 243 224 230 247 222 216 200 189 187 191 203 205 204 208 212 220 223 214 192 168 137 116 73 357 358 15 13 357 341 332 321 316 312 308
141 139 136 152 209 267 287 251 198 201 253 225 215 225 209 170 131 259 234 203 198 202 205 214 218 216 199 176 158 138 125 98 51 23 32 28 9 342 327 316 311 310 308 304
124 129 143 159 185 228 244 230 186 119 270 242 194 199 181 149 184 242 227 207 207 214 217 219 214 190 170 159 140 137 137 126 103 55 20 358 339 318 306 302 302 301 299 296
147 172 190 193 212 247 247 207 125 177 240 223 187 194 184 191 210 216 205 213 219 225 226 214 192 179 167 145 136 144 151 156 103 54 348 319 306 295 290 288 290 293 293 294
169 176 195 176 207 244 207 153 187 216 212 189 198 201 199 212 222 220 216 223 229 229 218 194 180 168 145 135 137 157 172 114 70 351 306 292 284 282 284 279 285 285 287 291
195 190 184 191 212 224 172 192 211 201 200 207 207 210 207 217 227 228 228 229 229 223 208 186 172 157 142 136 142 174 170 89 335 303 287 279 273 266 271 276 286 288 286 288
241 182 163 219 250 235 223 230 232 213 214 217 211 212 211 220 230 234 234 232 226 216 193 168 160 165 169 160 152 168 202 216 274 280 280 278 277 278 275 277 284 286 288 288
214 185 188 222 241 244 240 231 236 237 234 235 231 224 222 226 235 236 234 229 220 202 175 162 169 171 169 161 171 193 215 229 257 268 272 281 283 279 283 283 280 286 276 277
212 198 196 223 221 209 226 228 229 233 237 236 235 240 237 229 235 234 231 225 203 179 157 154 155 157 160 171 207 224 229 227 242 266 277 283 288 287 289 294 296 295 297 300